Lid_Strength_Index
3 2 1 -0 1 2 3 3 4 4 5 5 5 6 6 6 6 10 12 11 11 13 12 11 10 13 12 13 14 12 12 12 14 15 15 16 16 15 16 14 14 15 16 17 17 18 19 11 9 12 12 9 8 8
2 1 0 0 1 2 3 3 4 4 4 5 5 6 6 6 6 9 11 10 10 11 11 11 10 9 9 10 12 13 13 13 13 14 15 15 15 15 16 17 13 16 14 15 15 16 12 11 9 8 7 8 7 8
2 1 0 -0 1 2 3 3 3 4 4 5 5 6 6 6 6 8 11 10 11 12 12 12 12 10 9 9 10 12 13 11 12 12 14 15 16 15 16 16 15 14 13 15 14 12 11 11 10 8 7 7 5 5
2 1 0 -0 1 2 3 3 3 4 4 5 5 6 6 6 6 8 11 10 10 13 15 13 9 10 8 9 9 10 10 11 12 13 14 16 17 15 17 16 16 14 13 14 14 12 11 11 11 10 10 9 9 7
1 1 0 -0 1 2 3 3 3 4 4 5 5 6 6 6 6 9 10 10 10 12 15 14 12 11 11 11 10 10 12 13 15 15 16 17 16 15 17 17 18 14 13 14 14 12 12 12 10 9 10 10 9 9
1 1 0 -0 1 2 3 3 3 3 4 5 5 6 7 6 7 9 12 9 9 9 14 15 11 11 11 11 11 12 12 14 14 15 16 16 14 15 18 19 15 12 12 12 13 12 12 11 9 9 9 9 9 8
1 1 0 1 1 2 3 3 3 3 4 4 5 6 6 7 9 10 12 10 7 10 13 15 15 12 11 11 12 13 13 14 14 15 15 15 15 14 18 19 14 13 12 12 11 11 12 11 11 9 8 7 6 6
0 1 1 1 2 2 3 3 3 3 4 4 5 5 6 7 8 10 10 7 9 12 13 16 16 14 11 14 15 13 14 14 14 15 15 15 15 16 18 14 13 12 11 11 10 10 10 9 9 8 7 7 8 7
1 1 1 1 2 2 3 3 3 4 4 5 5 6 9 10 12 10 6 8 10 12 16 15 17 17 13 14 14 14 14 16 14 15 15 15 17 17 14 13 12 11 11 10 9 9 9 9 8 8 8 7 7 7
1 1 1 2 2 3 3 3 3 4 4 4 7 10 13 10 6 6 10 12 13 13 13 16 15 17 14 15 16 15 16 16 17 16 14 17 17 12 11 11 11 10 9 9 10 9 9 8 8 7 6 5 5 5
1 1 1 1 2 3 3 4 4 4 5 8 10 10 8 5 9 10 13 14 15 15 15 15 15 17 13 16 17 16 17 17 18 16 15 17 17 12 11 9 8 8 7 6 6 6 6 6 5 5 4 4 4 4
2 2 2 3 3 4 4 4 5 7 8 7 7 7 9 10 12 14 15 14 15 16 14 14 14 14 14 12 14 14 14 15 17 14 16 17 13 12 9 7 6 6 5 5 5 4 4 4 4 4 4 4 4 3
3 3 3 3 4 4 5 5 5 5 5 7 9 10 12 13 18 16 17 16 16 14 13 13 14 13 12 13 16 14 15 15 13 15 16 14 12 9 7 6 5 5 5 5 4 4 4 4 3 4 4 3 4 4
4 4 4 4 4 4 4 5 5 5 8 11 12 17 16 16 15 15 15 15 13 13 12 13 16 16 14 15 14 14 13 13 15 15 14 12 10 7 6 5 6 5 5 5 4 4 4 4 4 4 4 4 4 4
3 4 4 4 4 4 4 4 5 7 9 12 13 19 15 14 14 14 13 14 12 12 11 13 13 13 15 14 13 13 13 14 13 13 12 11 9 8 7 6 6 6 5 5 5 5 5 5 5 5 5 4 4 3
4 4 5 3 3 4 4 5 7 8 9 11 12 14 14 15 15 14 14 13 12 11 11 12 13 14 14 13 13 13 13 14 13 11 10 10 9 8 8 7 6 6 6 6 6 6 6 6 6 5 5 4 4 4
4 7 3 3 3 4 4 7 8 9 11 11 13 12 13 13 13 13 13 12 10 10 12 12 13 12 11 13 12 12 13 11 11 11 10 9 9 8 7 7 7 6 6 6 6 6 6 5 5 5 5 4 4 3
7 6 4 4 5 6 7 8 9 10 12 11 13 13 13 12 12 11 11 10 9 10 10 11 10 13 14 13 13 12 11 11 9 9 8 8 8 7 7 7 6 6 6 6 5 5 5 5 5 5 4 4 3 3
5 4 2 3 6 8 9 9 9 13 12 12 12 12 12 11 10 10 8 8 9 9 9 11 13 15 13 12 12 11 10 9 10 9 8 6 6 6 6 6 6 6 6 6 5 5 5 5 5 5 5 4 4 4
2 2 2 3 4 8 9 9 9 11 12 12 11 10 10 10 9 9 9 9 10 10 11 13 12 12 12 9 8 9 9 8 8 9 8 7 6 6 6 6 6 5 5 5 6 7 5 5 5 5 4 5 5 5
3 3 2 4 6 7 9 9 8 9 10 11 10 10 11 10 11 10 11 7 9 12 10 10 10 8 7 7 7 8 8 8 8 9 9 9 7 6 7 7 7 7 7 7 7 7 8 7 6 5 5 5 4 4
2 1 5 4 6 6 8 8 9 8 11 11 11 8 9 11 10 8 6 8 9 10 8 8 8 8 8 9 8 8 8 8 8 8 9 9 9 8 7 7 7 7 7 7 6 7 6 6 5 5 4 5 5 4
3 4 5 5 8 10 11 7 9 9 10 10 9 9 9 9 7 6 9 8 8 7 7 7 7 7 8 7 7 7 7 8 8 8 7 7 6 6 6 6 6 7 7 7 6 5 6 7 6 5 5 5 5 6
3 7 9 9 9 10 8 9 8 9 9 10 11 11 10 9 7 9 11 10 9 7 8 8 8 8 8 8 8 8 7 7 7 6 6 6 7 6 5 5 5 5 6 5 5 5 5 5 7 5 5 6 6 6
10 11 9 12 9 11 11 11 10 10 10 9 10 10 9 7 10 11 12 10 10 9 8 8 8 8 9 9 8 8 7 7 7 7 6 6 5 5 5 4 5 4 3 5 5 5 5 5 5 5 6 6 6 7
12 9 10 10 10 11 11 11 10 10 9 10 9 9 8 10 13 14 12 11 10 8 8 8 9 9 9 8 9 8 7 6 6 7 5 5 5 6 5 5 6 5 3 4 4 5 5 6 6 6 6 7 10 8
11 10 8 6 7 8 9 8 8 9 11 11 11 11 12 13 15 13 10 8 8 8 7 7 8 8 9 8 7 6 6 6 6 5 4 4 3 3 5 5 5 4 3 4 4 5 6 6 6 6 6 6 7 7
9 9 9 7 8 7 9 9 9 10 10 10 11 12 13 14 14 10 9 8 7 7 7 7 7 7 7 7 6 6 6 5 5 4 3 3 3 3 3 5 5 8 4 3 4 5 5 5 6 5 5 7 8 8
9 8 8 8 8 8 8 9 9 8 8 10 11 12 11 10 8 7 7 7 7 8 8 8 7 7 6 6 6 6 5 6 7 7 7 7 6 5 4 4 4 4 4 7 12 7 5 5 5 5 5 7 8 8
9 7 8 8 9 9 8 7 7 6 6 7 8 8 8 8 7 6 7 7 8 8 8 8 8 7 7 7 8 7 5 5 6 7 7 7 6 5 4 4 4 5 6 7 7 8 11 7 8 6 7 7 7 8
6 7 7 7 8 7 6 6 5 5 5 6 7 9 9 7 7 6 7 8 8 8 8 9 8 7 7 7 7 8 8 6 6 7 7 5 5 4 5 5 5 5 5 6 6 6 6 6 6 6 6 6 7 7
6 7 8 9 8 6 6 7 7 7 7 7 7 7 7 9 10 9 7 8 9 9 10 9 8 8 6 5 5 6 10 6 9 9 8 7 6 5 4 4 5 5 6 6 5 5 5 5 6 6 6 6 7 7
8 8 8 8 8 7 7 7 8 9 8 8 8 7 7 8 10 9 8 8 9 10 9 8 7 7 6 5 5 6 8 5 8 11 11 12 12 11 6 5 4 5 5 6 6 5 6 6 6 6 6 6 7 8